Mitchell, SD

9:19 PM CDT on October 14, 2019 (GMT -0500)
Mitchell Municipal

Weather History for KMHE - June, 2019

Change the Weather History Date:

Sunday, June 2, 2019

  Actual Average Record
Temperature  
Mean Temperature 64 °F 65 °F  
Max Temperature 77 °F 76 °F 99 °F (1934)
Min Temperature 50 °F 54 °F 31 °F (1946)
Degree Days  
Heating Degree Days 1 3  
Month to date heating degree days 4 6  
Since 1 June heating degree days 4 6  
Since 1 July heating degree days 7983 7216  
Cooling Degree Days 0 3  
Month to date cooling degree days 0 5  
Year to date cooling degree days 19 45  
Since 1 June cooling degree days 0 5  
Growing Degree Days 14 (Base 50)    
Moisture  
Dew Point 50 °F    
Average Humidity 63    
Maximum Humidity 89    
Minimum Humidity 36    
Precipitation  
Precipitation 0.00 in 0.14 in 2.50 in (1990)
Month to date precipitation 0.01 0.29  
Year to date precipitation 11.85 7.02  
Snow  
Snow 0.00 in - 0.00 in ()
Month to date snowfall 0.0  
Since 1 June snowfall 0.0  
Since 1 July snowfall 67.6  
Snow Depth 0.00 in    
Sea Level Pressure  
Sea Level Pressure 29.99 in    
Wind  
Wind Speed 6 mph (South)    
Max Wind Speed 16 mph    
Max Gust Speed 23 mph    
Visibility 10 miles    
Events      
T = Trace of Precipitation, MM = Missing Value Source: NWS Daily Summary

Daily Weather History Graph

Daily Weather History Graph

Search for Another Location

Airport or City:

Astronomy

Jun. 02, 2019 Rise Set
Actual Time 5:52 AM CDT 9:08 PM CDT
Civil Twilight 5:17 AM CDT 9:43 PM CDT
Nautical Twilight 4:31 AM CDT 10:29 PM CDT
Astronomical Twilight 3:36 AM CDT 11:25 PM CDT
Moon 5:37 AM CDT (6/2) 8:26 PM CDT (6/2)
Length of Visible Light 16h 25m
Length of Day
15h 15m
Waning Crescent, 1% of the Moon is Illuminated
Jun 2
Waning Crescent
Jun 3
New
Jun 10
First Quarter
Jun 17
Full
Jun 25
Last Quarter

Hourly Weather History & Observations

Time (CDT) Temp. Dew Point Humidity Pressure Visibility Wind Dir Wind Speed Gust Speed Precip Events Conditions
12:53 AM 55.9 °F 50.0 °F 80% 30.01 in 10.0 mi SW 3.5 mph - N/A   Clear
1:53 AM 53.1 °F 46.9 °F 80% 30.03 in 10.0 mi WSW 5.8 mph - N/A   Clear
2:53 AM 54.0 °F 48.0 °F 80% 30.02 in 10.0 mi SW 3.5 mph - N/A   Clear
3:53 AM 54.0 °F 48.9 °F 83% 30.02 in 10.0 mi Calm Calm - N/A   Clear
4:53 AM 54.0 °F 48.9 °F 83% 30.02 in 10.0 mi Calm Calm - N/A   Clear
5:53 AM 51.1 °F 48.0 °F 89% 30.03 in 10.0 mi South 3.5 mph - N/A   Clear
6:53 AM 52.0 °F 48.9 °F 89% 30.04 in 10.0 mi Calm Calm - N/A   Clear
7:53 AM 55.9 °F 51.1 °F 84% 30.05 in 10.0 mi Calm Calm - N/A   Clear
8:53 AM 61.0 °F 53.1 °F 75% 30.05 in 9.0 mi Calm Calm - N/A   Clear
9:53 AM 64.0 °F 53.1 °F 67% 30.06 in 10.0 mi Calm Calm - N/A   Clear
10:53 AM 68.0 °F 51.1 °F 55% 30.06 in 10.0 mi South 5.8 mph - N/A   Clear
11:53 AM 70.0 °F 51.1 °F 51% 30.05 in 10.0 mi SSW 6.9 mph - N/A   Clear
12:53 PM 73.0 °F 50.0 °F 44% 30.03 in 10.0 mi SSE 8.1 mph - N/A   Clear
1:53 PM 73.9 °F 50.0 °F 43% 30.00 in 10.0 mi South 11.5 mph - N/A   Clear
2:53 PM 75.9 °F 48.0 °F 37% 29.98 in 10.0 mi South 10.4 mph - N/A   Clear
3:53 PM 75.9 °F 48.0 °F 37% 29.96 in 10.0 mi SSE 15.0 mph 23.0 mph N/A   Clear
4:53 PM 77.0 °F 48.0 °F 36% 29.95 in 10.0 mi South 13.8 mph 20.7 mph N/A   Clear
5:53 PM 77.0 °F 48.9 °F 37% 29.93 in 10.0 mi South 9.2 mph 19.6 mph N/A   Clear
6:53 PM 73.9 °F 46.9 °F 38% 29.92 in 10.0 mi South 10.4 mph - N/A   Clear
7:53 PM 72.0 °F 48.9 °F 44% 29.92 in 10.0 mi SSE 9.2 mph - N/A   Clear
8:53 PM 66.9 °F 52.0 °F 59% 29.91 in 10.0 mi ESE 5.8 mph - N/A   Partly Cloudy
9:53 PM 64.9 °F 52.0 °F 63% 29.92 in 10.0 mi SE 5.8 mph - N/A   Partly Cloudy
10:53 PM 64.9 °F 52.0 °F 63% 29.93 in 10.0 mi SE 8.1 mph - N/A   Partly Cloudy
11:53 PM 66.0 °F 48.9 °F 54% 29.93 in 10.0 mi SE 10.4 mph - N/A   Clear